Regional Weather Roundup
Issued by NWS Newport/Morehead, NC

Home | Current Version | Previous Version | Text Only | Print | Product List | Glossary On
Versions: 1 2 3 4 5 6 7 8 9 10 11 12 13 14 15 16 17 18 19 20 21 22 23 24 25 26 27 28 29 30 31 32 33 34 35 36 37 38 39 40 41 42 43 44 45 46 47 48 49 50
964
ASUS42 KMHX 240625
RWRMHX
WEATHER ROUNDUP FOR EASTERN NORTH CAROLINA
NATIONAL WEATHER SERVICE NEWPORT/MOREHEAD CITY NC
200 AM EDT WED MAY 24 2017

NOTE: "FAIR" INDICATES FEW OR NO CLOUDS BELOW 12,000 FEET
WITH NO SIGNIFICANT WEATHER AND/OR OBSTRUCTIONS TO VISIBILITY

NCZ015>017-031-032-045>047-102-103-240700-
NORTH COAST

CITY           SKY/WX    TMP DP  RH WIND       PRES   REMARKS
EDENTON        CLOUDY    71  68  89 SW9       29.66R
ELIZABETH CITY CLOUDY    65  65 100 NW3       29.65F
KITTY HAWK     CLOUDY    70  70 100 SW6       29.63F
MANTEO         CLOUDY    70  67  91 W10       29.65F

$$

NCZ045>047-081-094-103-104-240700-
CENTRAL COAST

CITY           SKY/WX    TMP DP  RH WIND       PRES   REMARKS
FRISCO         NOT AVBL

$$

NCZ095-097-098-100-101-240700-
SOUTHERN COAST

CITY           SKY/WX    TMP DP  RH WIND       PRES   REMARKS
BEAUFORT       CLOUDY    73  71  93 SW20G26   29.68F
CEDAR ISLAND   NOT AVBL
JACKSONVILLE   CLOUDY    70  70 100 SW7       29.66
PINEY ISLAND   CLOUDY   N/A N/A N/A S10       29.67
WILMINGTON     MOCLDY    71  69  93 SW10      29.67F


$$

NCZ011>013-027>030-043-044-078>080-089-090>093-098-240700-
COASTAL PLAIN

CITY           SKY/WX    TMP DP  RH WIND       PRES   REMARKS
AHOSKIE        LGT RAIN  61  60  98 N3        29.67S
CLINTON        CLOUDY    67  67 100 CALM      29.68S
ELIZABETHTOWN  CLOUDY    68  68 100 W3        29.68S FOG
GOLDSBORO      CLOUDY    68  68 100 W7        29.65S
GREENVILLE     LGT RAIN  68  68 100 CALM      29.69S
HAVELOCK       MOCLDY    71  68  90 S12       29.67F
KENANSVILLE    RAIN      68  68 100 SW5       29.67S FOG
KINSTON        CLOUDY    69  68  97 SW3       29.66F
NEW BERN       CLOUDY    69  69 100 S6        29.67F
RICHLANDS      CLOUDY    69  68  96 S8        29.67F
ROCKY MOUNT    LGT RAIN  64  64 100 NE3       29.67S FOG
WASHINGTON     CLOUDY    68  67  96 S3        29.65F
WHITEVILLE     CLOUDY    69  67  94 CALM      29.67F

$$

AMZ130-135-150-152-154-156-158-170-250-252-270-ANZ085-086-088-633-658-670-240700-
MARINE OBSERVATIONS

STATION/POSITION TIME  TEMP    WIND        PRES    WAVE   SWELL
                       AIR SEA DIR/SP/G            HT/PER HT/PER
                 (UTC) (F)     (DEG/KT/KT) (MB)    (FT/S) (FT/S)
CHESAPEAKE LIGHT NOT AVBL
64 E VA BEACH    0550   67 64  220/ 14/ 16 1003.8    5/ 8   3/ 8
DUCK             0600   71 62  220/ 15/ 20 1003.2
2 E DUCK         0600      65                N/A     3/ 7   2/11
OREGON INLET     0600   72 68  210/ 15/ 19 1003.8
13E OREGON INLT  0548      65                N/A     5/ 7   3/11
HATTERAS CG      0600   71 74  200/ 14/ 22 1004.6
DIAMOND BUOY     0550   72 75  220/ 23/ 27 1005.3    7/ 6   2/11
CAPE LOOKOUT     0600   72     210/ 14/ 18 1004.8
BEAUFORT LAB     0600   73 73  210/ 15/ 21 1004.0
30 SE NEW RVR IN 0608   74 76  220/ 16/ 21 1004.7
30 SE NEW RVR IN 0613      76                N/A     6/ 7
27 SE WRIGHTSVLE 0608   74 75  210/ 14/ 17 1004.0
5 SE WRIGHTSVLE  0608   74 74  240/ 12/ 17 1004.8
225 S CAPE HAT   0550   77 76  180/ 23/ 27 1009.8    7/ 7   2/12
41 SE CHARLESTON 0610   78 77  230/ 21/ 27 1005.5

$$




USA.gov is the U.S. government's official web portal to all federal, state and local government web resources and services.